IW2NIA-3 Weather Reports


Display with metric or nautical units.
time (UTC)temp
F
wind
direction
speed
MPH
gust
MPH
rain 1hr
in
rain 24hr
in
rain mn
in
humidity
%
barometer
mb
20260831150344 88 261 3.0 6.0 0.00 0.00 0.00 47 1013.2
20260831144836 87 246 1.0 5.0 0.00 0.00 0.00 45 1013.1
20260831143330 87 320 4.0 5.0 0.00 0.00 0.00 46 1013.2
20260831141844 88 235 7.0 12.0 0.00 0.00 0.00 46 1013.2
20260831140340 87 295 1.0 6.0 0.00 0.00 0.00 47 1013.2
20260831134828 88 261 5.0 11.0 0.00 0.00 0.00 51 1013.2
20260831133334 87 268 1.0 6.0 0.00 0.00 0.00 56 1013.3
20260831131829 87 277 3.0 6.0 0.00 0.00 0.00 52 1013.4
20260831130330 87 265 3.0 5.0 0.00 0.00 0.00 51 1013.5
20260831124843 86 229 1.0 5.0 0.00 0.00 0.00 55 1013.7
20260831123335 86 276 3.0 7.0 0.00 0.00 0.00 49 1013.8
20260831121846 86 232 3.0 6.0 0.00 0.00 0.00 52 1014.0
20260831120344 86 313 4.0 10.0 0.00 0.00 0.00 53 1014.0
20260831114839 85 355 2.0 7.0 0.00 0.00 0.00 56 1014.1
20260831113334 84 277 2.0 5.0 0.00 0.00 0.00 54 1014.3
20260831111827 84 321 3.0 7.0 0.00 0.00 0.00 53 1014.4
20260831110330 83 63 0.0 6.0 0.00 0.00 0.00 55 1014.5
20260831104845 83 57 3.0 6.0 0.00 0.00 0.00 60 1014.6
20260831103337 82 336 3.0 6.0 0.00 0.00 0.00 57 1014.7
20260831101831 83 12 5.0 6.0 0.00 0.00 0.00 59 1014.6
20260831100340 82 304 1.0 7.0 0.00 0.00 0.00 59 1014.7
20260831094837 81 237 1.0 4.0 0.00 0.00 0.00 63 1014.8
20260831093327 81 235 4.0 6.0 0.00 0.00 0.00 65 1014.9
20260831091842 80 256 2.0 4.0 0.00 0.00 0.00 66 1014.9
20260831090335 79 267 1.0 4.0 0.00 0.00 0.00 64 1014.9
20260831084847 79 335 3.0 4.0 0.00 0.00 0.00 66 1015.0
20260831083341 78 270 1.0 3.0 0.00 0.00 0.00 66 1014.9
20260831081839 77 257 1.0 4.0 0.00 0.00 0.00 68 1014.8
20260831080336 77 259 1.0 4.0 0.00 0.00 0.00 69 1014.8
20260831074835 76 252 2.0 3.0 0.00 0.00 0.00 71 1014.7
20260831073333 76 74 0.0 3.0 0.00 0.00 0.00 70 1014.7
20260831071835 76 69 0.0 2.0 0.00 0.00 0.00 72 1014.6
20260831070331 75 69 0.0 0.0 0.00 0.00 0.00 73 1014.7
20260831064846 74 64 1.0 3.0 0.00 0.00 0.00 75 1014.6
20260831063335 73 64 0.0 3.0 0.00 0.00 0.00 77 1014.7
20260831061830 72 65 2.0 3.0 0.00 0.00 0.00 78 1014.7
20260831060330 71 65 0.0 1.0 0.00 0.00 0.00 78 1014.7
20260831054825 70 44 1.0 3.0 0.00 0.00 0.00 79 1014.6
20260831053344 70 44 1.0 5.0 0.00 0.00 0.00 80 1014.6
20260831051838 69 43 2.0 4.0 0.00 0.00 0.00 80 1014.4
20260831050335 69 44 2.0 4.0 0.00 0.00 0.00 80 1014.3
20260831044829 69 355 0.0 5.0 0.00 0.00 0.00 80 1014.2
20260831043343 70 17 3.0 4.0 0.00 0.00 0.00 79 1014.2
20260831041839 70 57 2.0 4.0 0.00 0.00 0.00 78 1014.1
20260831040329 70 57 2.0 4.0 0.00 0.00 0.00 78 1014.2
20260831034825 71 57 3.0 4.0 0.00 0.00 0.00 78 1014.2
20260831033344 71 57 1.0 4.0 0.00 0.00 0.00 78 1014.3
20260831031835 71 59 2.0 3.0 0.00 0.00 0.00 77 1014.3
20260831030331 71 40 1.0 5.0 0.00 0.00 0.00 79 1014.5
20260831024842 70 60 3.0 4.0 0.00 0.00 0.00 79 1014.5
20260831023337 70 60 2.0 4.0 0.00 0.00 0.00 78 1014.3
20260831021842 70 60 1.0 4.0 0.00 0.00 0.00 78 1014.3
20260831020332 71 74 2.0 3.0 0.00 0.00 0.00 77 1014.3
20260831014845 71 61 2.0 4.0 0.00 0.00 0.00 77 1014.4
20260831013335 71 72 3.0 4.0 0.00 0.00 0.00 76 1014.6
20260831011831 71 41 2.0 5.0 0.00 0.00 0.00 75 1014.6
20260831010342 72 51 0.0 0.0 0.00 0.00 0.00 74 1014.5
20260831004837 72 51 0.0 3.0 0.00 0.00 0.00 73 1014.4
20260831003340 73 51 1.0 3.0 0.00 0.00 0.00 73 1014.5
20260831001832 73 50 0.0 3.0 0.00 0.00 0.00 73 1014.6
20260831000328 73 51 0.0 4.0 0.00 0.00 0.00 73 1014.7
20260830234847 72 51 1.0 3.0 0.00 0.00 0.00 74 1014.8
20260830233346 72 51 2.0 3.0 0.00 0.00 0.00 72 1014.8
20260830231842 73 51 0.0 2.0 0.00 0.00 0.00 71 1014.8
20260830230341 73 51 0.0 1.0 0.00 0.00 0.00 70 1014.9
20260830224836 73 51 0.0 0.0 0.00 0.00 0.00 70 1015.0
20260830223334 74 51 0.0 0.0 0.00 0.00 0.00 70 1015.0
20260830221834 73 51 0.0 0.0 0.00 0.00 0.00 72 1014.9
20260830220344 73 52 0.0 4.0 0.00 0.00 0.00 72 1014.9
20260830214838 72 80 2.0 3.0 0.00 0.00 0.00 74 1014.8
20260830213330 72 80 0.0 1.0 0.00 0.00 0.00 74 1014.7
20260830211847 72 80 1.0 3.0 0.00 0.00 0.00 74 1014.6
20260830210338 72 80 0.0 2.0 0.00 0.00 0.00 74 1014.6
20260830204840 72 80 1.0 3.0 0.00 0.00 0.00 74 1014.6
20260830203340 73 81 2.0 3.0 0.00 0.00 0.00 74 1014.6
20260830201842 73 81 2.0 4.0 0.00 0.00 0.00 74 1014.5
20260830200337 74 83 2.0 3.0 0.00 0.00 0.00 74 1014.4
20260830194836 74 82 2.0 3.0 0.00 0.00 0.00 74 1014.4
20260830193347 74 348 0.0 2.0 0.00 0.00 0.00 74 1014.2
20260830191843 75 315 0.0 0.0 0.00 0.00 0.00 74 1014.2
20260830190340 76 315 0.0 0.0 0.00 0.00 0.00 74 1014.2
20260830184829 77 315 0.0 0.0 0.00 0.00 0.00 70 1014.0
20260830183348 78 315 3.0 5.0 0.00 0.00 0.00 68 1013.9
20260830181840 79 240 0.0 0.0 0.00 0.00 0.00 64 1013.7
20260830180338 80 240 0.0 0.0 0.00 0.00 0.00 61 1013.6
20260830174833 81 240 0.0 0.0 0.00 0.00 0.00 59 1013.5
20260830173331 83 240 0.0 0.0 0.00 0.00 0.00 53 1013.4
20260830171833 83 240 0.0 1.0 0.00 0.00 0.00 47 1013.4
20260830170330 84 240 0.0 2.0 0.00 0.00 0.00 47 1013.3
20260830164842 84 240 1.0 3.0 0.00 0.00 0.00 46 1013.4
20260830163330 85 240 2.0 4.0 0.00 0.00 0.00 46 1013.5
20260830161842 86 239 0.0 3.0 0.00 0.00 0.00 44 1013.6
20260830160339 87 236 2.0 4.0 0.00 0.00 0.00 44 1013.5
20260830154836 86 242 5.0 5.0 0.00 0.00 0.00 46 1013.7
20260830153337 86 196 1.0 5.0 0.00 0.00 0.00 45 1013.7
20260830151830 86 238 0.0 5.0 0.00 0.00 0.00 46 1013.8